Location: Mountain View
(37.3861°N, 122.0839°W)
Time: 20:16:04
(UTC-07:00)

Envisat - Pass Details

Date: 14 May 2026
Orbit: 761 x 763 km, 98.4° (Epoch: 9 June)

Event Time Altitude Azimuth Distance (km) Brightness Sun altitude
Rises 04:13:48 0° 5° (N) 3,230 7.0 -18.4°
Reaches altitude 10° 04:16:10 10° 360° (N) 2,300 6.0 -18.1°
Maximum altitude 04:20:59 46° 288° (WNW) 1,022 3.4 -17.4°
Enters shadow 04:23:05 29° 235° (SW) 1,359 3.7 -17.1°
